sat.trackr.live / text

‹ back to catalog

STARLINK-36658

NORAD 67846 · 2026-033AB

PAYLOAD ACTIVE UNKNOWN

§ Identity

Operator
Country
US
Launch date
2026-02-16
Launch site
AFETR
Launch vehicle
Mass (kg)
RCS (m²)

Purposes: comms

External: N2YO · Heavens-Above · Gunter

§ Orbital elements

Epoch: 2026-09-19T23:18:58.988448Z

Period
94.27 min
Inclination
43.0005°
Eccentricity
0.0001518
Mean motion
15.27585723 rev/d
Perigee alt
482.0 km
Apogee alt
484.1 km
Semi-major
6,861.2 km
B*
3.0996e-4
RAAN
250.1341°
Arg perigee
268.9267°
Mean anomaly
91.1411°
Rev number
3,438

§ Raw data

STARLINK-366581 67846U 26033AB  26262.97151607  .00008278  00000+0  30996-3 0  99932 67846  43.0005 250.1341 0001518 268.9267  91.1411 15.27585723 34386

JSON: /api/v1/satellites/67846 · /tle

For live sub-satellite position, see the globe view (requires WebGL).

§ Visibility from observer

Set your observer location to see the next 7 days of passes ≥ 10°. The values pass through the URL so the page stays shareable.

No JS? Fill the form by hand. The geolocation button needs JavaScript.